www.pogodaiklimat.ru

Погода и климат >> Архив погоды >> Казахстан >> Пешной


ПОГОДА в Пешном

  • Прогноз погоды в Пешном
  • Монитор погоды в Пешном

АРХИВ ПОГОДЫ в Пешном

Время (UTC), дата Ветер
(напр.,м/с)
 
Видим.   Явления Облачность Т
(С)
Тd
(С)
f
(%)
Тe
(С)
Тes
(С)
Комфортность P
(гПа)
Po
(гПа)
Тmin
(С)
Tmax
(С)
R
(мм)
R24
(мм)
S
(см)
15 20.05 СЗ 4 10 км ясно +19.1 -3.8 21 +19 +21 1014.9 1017.8 +22.8
18 20.05 СЗ 2 н/о ясно +11.9 +0.6 46 +11 +11 1016.9 1019.9 +22.8
21 20.05 СЗ 2 н/о 1/0
[Ci fib]
+8.1 0.0 57 +7 +7 1018.1 1021.1
00 21.05 СЗ 2 н/о 3/0
[Ci fib]
+5.5 +0.9 72 +3 +3 1018.6 1021.6
03 21.05 СЗ 2 10 км 1/0
[Ci fib]
+8.7 +3.6 70 +7 +9 1020.1 1023.1
06 21.05 СЗ 4 10 км 1/1 1000 м
[Cu hum]
+16.9 +1.7 36 +17 +22 1021.5 1024.4 +4.0
09 21.05 СЗ 4 10 км 6/6 1000 м
[Cu med, cong]
+18.8 +2.3 33 +19 +23 1021.6 1024.5
12 21.05 СЗ 6 10 км 3/3 1000 м
[Cu hum]
+20.1 +1.5 29 +20 +23 1021.3 1024.2
18 21.05 С 2 н/о 3/0
[Ac cast]
+13.0 +1.1 44 +13 +13 1022.6 1025.6 +21.6
21 21.05 С 2 н/о 3/0
[Ac cast]
+10.3 +7.4 82 +9 +9 1023.0 1026.0
00 22.05 С 2 н/о 3/0
[Ci fib]
+7.8 +3.8 76 +6 +6 1022.9 1025.9
03 22.05 штиль 0 10 км 3/0
[Ac cast Ci]
+11.3 +3.4 58 +11 +13 1022.9 1025.9
06 22.05 штиль 0 10 км 6/0
[Ac lent Ci sp]
+20.2 -3.0 21 +20 +28 1023.0 1025.9 +7.0
09 22.05 Ю 4 10 км 4/3 1000 м
[Cu med, cong Ci fib]
+19.9 0.0 26 +20 +27 1022.4 1025.3
12 22.05 Ю 4 10 км 8/3 1000 м
[Cu med, cong Ac cast Cc]
+20.3 +2.3 30 +21 +24 комфорт 1020.8 1023.7
15 22.05 Ю 2 10 км 8/3 600 м
[Cb calv Ac cuf Ci fib]
+18.6 +7.1 47 +19 +21 1019.9 1022.8 +20.9
18 22.05 В 2 н/о 8/3 600 м
[Cb calv Ac cuf Ci fib]
+15.7 +7.8 59 +16 +16 1019.9 1022.9 +20.9
21 22.05 В 2 н/о 6/0
[Ac cuf Ci fib]
+9.3 +6.1 80 +8 +8 1018.5 1021.5
00 23.05 В 2 н/о 8/0
[Ac cast Ci fib]
+7.6 +5.6 87 +5 +5 1017.7 1020.7
03 23.05 В 2 10 км 8/0
[Ac cast Ci fib]
+15.4 +8.1 62 +15 +17 1016.4 1019.4
09 23.05 ЮВ 8 10 км 9/5 600 м
[Cb calv Ac cast Ci fib]
+21.8 +5.3 34 +22 +23 комфорт 1013.6 1016.5
15 23.05 ЮЗ 2 10 км 9/9 600 м
[Cb calv]
+19.7 +10.3 55 +22 +22 комфорт 1011.4 1014.3 +24.3
21 23.05 СВ 2 н/о 10/10 600 м
[Cb calv]
+16.5 +11.1 70 +17 +17 1010.4 1013.3
00 24.05 В 2 н/о 10/10 600 м
[Cb calv]
+14.6 +11.7 83 +14 +14 1009.2 1012.2
03 24.05 В 2 10 км 6/3 600 м
[Cb calv Ci]
+14.5 +12.3 87 +14 +15 1008.4 1011.4
06 24.05 З 2 10 км 6/4 1000 м
[Cu med, cong Ac und]
+18.8 +12.0 65 +20 +24 1008.5 1011.4 +14.0
09 24.05 З 6 10 км 8/6 600 м
[Cu med, cong Ac As]
+20.4 +10.0 51 +22 +23 комфорт 1008.0 1010.9
12 24.05 З 8 10 км 8/3 600 м
[Cb calv Ci fib]
+21.2 +12.2 56 +23 +24 комфорт 1008.1 1011.0
15 24.05 ЮЗ 2 10 км 8/3 600 м
[Cb calv Ac cuf Cs]
+20.1 +14.4 70 +23 +24 комфорт 1008.7 1011.6 +23.8
18 24.05 ЮЗ 2 н/о ясно +17.7 +15.5 87 +18 +18 1010.5 1013.4 +23.8
21 24.05 Ю 2 н/о ясно +18.7 +17.2 91 +20 +20 1011.1 1014.0
00 25.05 ЮЗ 2 н/о ясно +18.9 +17.9 94 +21 +21 комфорт 1011.7 1014.6
03 25.05 З 2 10 км 3/3 600 м
[Cb calv Ci sp]
+19.8 +18.7 93 +23 +24 комфорт 1012.4 1015.3
06 25.05 С 2 10 км 4/0
[Ci fib]
+24.5 +14.2 53 +27 +36 жарко 1013.8 1016.7 +17.2
09 25.05 Ю 4 10 км 8/3 600 м
[Cb calv Ci fib]
+24.2 +17.7 67 +28 +34 душно 1014.1 1017.0
12 25.05 Ю 4 10 км 8/4 600 м
[Cb calv Ac As Ci fib]
+24.4 +15.3 57 +27 +30 жарко 1014.0 1016.9
15 25.05 Ю 2 10 км 6/3 600 м
[Cb calv Ci]
+22.6 +15.2 63 +26 +28 жарко 1013.5 1016.4 +26.1
18 25.05 штиль 0 н/о 3/0
[Ac cuf]
+18.9 +14.8 77 +20 +20 1014.2 1017.1 +26.1
21 25.05 штиль 0 н/о ясно +14.9 +13.2 90 +15 +15 1013.7 1016.7
03 26.05 СВ 2 10 км 6/4 600 м
[Cb calv Ac cast Cs]
+19.3 +15.8 80 +22 +22 комфорт 1013.7 1016.6
12 26.05 СВ 2 10 км {ливн. осадки} 8/6 600 м
[Cb calv Ac cast]
+21.0 +13.7 63 +24 +27 комфорт 1014.3 1017.2
15 26.05 СВ 4 10 км 6/3 600 м
[Cb calv Ac cuf]
+24.5 +10.5 41 +26 +26 жарко 1012.3 1015.2 +26.2
18 26.05 СВ 4 н/о 6/3 600 м
[Cb calv Ac cuf]
+20.0 +11.8 59 +22 +22 комфорт 1012.7 1015.6 +26.2 0.0
21 26.05 СВ 2 н/о 6/5 600 м
[Cb calv Ac cuf]
+19.3 +12.5 65 +21 +21 комфорт 1011.4 1014.3
00 27.05 В 4 н/о {ливн. осадки} 3/3 600 м
[Cb calv Ac lent]
+19.0 +14.9 77 +20 +20 1010.2 1013.1
03 27.05 В 4 10 км 4/3 600 м
[Cb calv Ac lent]
+20.4 +5.8 38 +21 +22 комфорт 1009.3 1012.2
06 27.05 Ю 8 10 км 8/5 600 м
[Cb calv Ac cast]
+23.6 +18.4 73 +28 +29 душно 1009.7 1012.6 +17.6 0.3
12 27.05 З 6 10 км {ливн. осадки} 8/5 600 м
[Cb calv Ac cast Cs]
+22.4 +16.4 69 +27 +28 душно 1011.4 1014.3

 

Местоположение метеостанции Пешной (Атырауская область, Казахстан): широта 56.92 долгота 41.68 высота над уровнем моря -21 м.

В архиве по умолчанию представлена погода в Пешном за последнюю неделю. Архивные данные за месяц целиком и за предыдущие месяцы, начиная с января 2011 года, Вы можете получить, выбрав интересующий диапазон дат из раскрывающегося списка и нажав кнопку "Ввод!".


*Определитесь, кто Вы:
робот инопланетянин человек

Внимание! Время в таблицах - всемирное. Для получения местного времени необходимо прибавить поправку, которая равна 5 ч.

Смотрите также архив погоды в соседних городах и на ближайших метеорологических станциях:

Погода в Шуе (Ивановская область, Россия) (19 км)
Погода в Вичуге (Ивановская область, Россия) (36 км)
Погода в Иванове (Ивановская область, Россия) (43 км)
Погода в Приволжске (Ивановская область, Россия) (57 км)
Погода в Плесе (Ивановская область, Россия) (59 км)
Погода в Кинешме (Ивановская область, Россия) (63 км)
Погода в Коврове (Владимирская область, Россия) (65 км)
Погода в Тейково (Ивановская область, Россия) (70 км)
Погода в Вязниках (Владимирская область, Россия) (86 км)
Погода в Суздале (Владимирская область, Россия) (93 км)

Пояснения к столбцам:

Ветер - указаны скорость ветра в м/с - средняя за 10 мин, порывы в срок и между сроками (в фигурных скобках) и направление, откуда дует ветер: С - северный, СВ - северо-восточный, В - восточный, ЮВ - юго-восточный, Ю - южный, ЮЗ - юго-западный, З - западный, СЗ - северо-западный.
Видимость - горизонтальная дальность видимости в метрах или километрах. При видимости от 1 до 10 км при отсутствии осадков обычно наблюдается дымка, при ухудшении видимости до 1 км и менее - туман. В сухую погоду видимость может ухудшаться дымом, пылью или мглою.
Явления - указаны атмосферные явления, наблюдавшиеся в срок или в последний час перед сроком; фигурными скобками обозначены явления, наблюдавшиеся между сроками (за 1-3 часа до срока); квадратными скобками обозначены град или гололедные отложения с указанием их диаметра в мм.
Облачность - указаны через наклонную черту общая и нижняя облачность в баллах и высота нижней границы облаков в метрах; квадратными скобками обозначены формы облаков: Ci - перистые, Cs - перисто-слоистые, Cc - перисто-кучевые, Ac - высококучевые, As - высокослоистые, Sc - слоисто-кучевые, Ns - слоисто-дождевые, Cu - кучевые, Cb - кучево-дождевые. Подробнее классификацию облаков см. в Атласе облаков (PDF).
T - Температура воздуха - температура, измеренная на высоте 2 м над землей.
Td - Температура точки росы - температура, при понижении до которой содержащийся в воздухе водяной пар достигнет насыщения.
f - Относительная влажность воздуха - влажноcть воздуха, измеренная на высоте 2 м над землей.
Te - Эффективная температура - температура, которую ощущает одетый по сезону человек в тени. Характеристика душности погоды. При расчете учитывается влияние влажности воздуха и скорости ветра на теплоощущения человека.
Tes - Эффективная температура на солнце - температура, которую ощущает человек, с поправкой на солнечный нагрев. Характеристика знойности погоды. Зависит от высоты солнца над горизонтом, облачности и скорости ветра. Ночью, в пасмурную погоду, а также при ветре 12 м/с и более поправка равна нулю.
P - Атмосферное давление - приведенное к уровню моря атмосферное давление.
Po - Атмосферное давление - измеренное на уровне метеостанции атмосферное давление.
Tmin - Минимальная температура - минимум температуры воздуха на высоте 2 м над землей.
Tmax - Максимальная температура - максимум температуры воздуха на высоте 2 м над землей.
R - Количество осадков - Количество выпавших осадков за период времени, мм. При наведении курсора мыши на число - период времени, за который выпало указанное количество осадков.
R24 - Количество осадков - Количество выпавших осадков за 24 часа, мм.
S - Снежный покров - Высота снежного покрова, см. При наведении курсора мыши на число - состояние снежного покрова и степень покрытия местности в баллах.